User: anonymous   Login
Location: Grantsboro
(35.1404°N, 76.8424°W)
Time: 12:35:05
(UTC+00:00)
Language:

STARLINK-35 - Orbit

View from above orbital plane
View from above orbital plane
View from above satellite
View from above satellite

Ground track
Ground track

The orbit data is extracted from the following two-line orbital elements,

1 44264U 19029AF  20099.25001157 -.00005383  00000-0 -29187-3 0  9993
2 44264  52.9990 168.8864 0001266 119.1130 249.5764 15.12136163 48455
Epoch (UTC): 08 April 2020 06:00:01
Eccentricity: 0.0001266
inclination: 52.9990°
perigee height: 529 km
apogee height: 530 km
right ascension of ascending node: 168.8864°
argument of perigee: 119.1130°
revolutions per day: 15.12136163
mean anomaly at epoch: 249.5764°
orbit number at epoch: 4845

The dashed part of the orbit path shows where the satellite is in the earth's shadow,  

DLR